Time,TemperatureF,DewpointF,PressureIn,WindDirection,WindDirectionDegrees,WindSpeedMPH,WindSpeedGustMPH,Humidity,HourlyPrecipIn,Conditions,Clouds,dailyrainin,SoftwareType,DateUTC
2013-07-22 00:01:00,53.8,53.2,29.62,WSW,248,12.5,12.5,98,0.00,,,0.00,VWS V14.01,2013-07-22 07:01:00,
2013-07-22 00:06:00,53.8,53.2,29.62,West,270,6.3,6.3,98,0.00,,,0.00,VWS V14.01,2013-07-22 07:06:00,
2013-07-22 00:11:00,54.0,53.4,29.62,WSW,248,12.8,12.8,98,0.00,,,0.00,VWS V14.01,2013-07-22 07:11:00,
2013-07-22 00:16:00,54.0,53.4,29.62,SW,225,10.5,10.5,98,0.00,,,0.00,VWS V14.01,2013-07-22 07:16:00,
2013-07-22 00:21:00,54.0,53.4,29.62,WSW,248,17.0,17.0,98,0.00,,,0.00,VWS V14.01,2013-07-22 07:21:00,
2013-07-22 00:26:00,54.0,53.4,29.62,WSW,248,12.3,12.3,98,0.00,,,0.00,VWS V14.01,2013-07-22 07:26:00,
2013-07-22 00:31:00,54.0,53.4,29.62,SSW,202,13.4,13.4,98,0.00,,,0.00,VWS V14.01,2013-07-22 07:31:00,
2013-07-22 00:36:00,54.1,53.6,29.62,SSW,202,13.2,13.2,98,0.00,,,0.00,VWS V14.01,2013-07-22 07:36:00,
2013-07-22 00:41:00,54.1,53.6,29.62,WSW,248,10.7,10.7,98,0.00,,,0.00,VWS V14.01,2013-07-22 07:41:00,
2013-07-22 00:46:00,54.1,53.6,29.62,WSW,248,12.5,12.5,98,0.00,,,0.00,VWS V14.01,2013-07-22 07:46:00,
2013-07-22 00:51:00,54.1,53.6,29.62,WSW,248,11.0,11.0,98,0.00,,,0.00,VWS V14.01,2013-07-22 07:51:00,
2013-07-22 00:56:00,54.1,53.6,29.62,West,270,6.7,6.7,98,0.00,,,0.00,VWS V14.01,2013-07-22 07:56:00,
2013-07-22 01:01:00,54.1,53.6,29.62,WSW,248,13.0,13.0,98,0.00,,,0.00,VWS V14.01,2013-07-22 08:01:00,
2013-07-22 01:06:00,54.3,53.8,29.62,SW,225,6.5,6.5,98,0.00,,,0.00,VWS V14.01,2013-07-22 08:06:00,
2013-07-22 01:11:00,54.3,53.8,29.62,WSW,248,10.7,10.7,98,0.00,,,0.00,VWS V14.01,2013-07-22 08:11:00,
2013-07-22 01:16:00,54.3,53.8,29.62,WSW,248,11.0,11.0,98,0.00,,,0.00,VWS V14.01,2013-07-22 08:16:00,
2013-07-22 01:21:00,54.3,53.8,29.62,West,270,7.6,7.6,98,0.00,,,0.00,VWS V14.01,2013-07-22 08:21:00,
2013-07-22 01:26:00,54.3,53.8,29.62,West,270,12.8,12.8,98,0.00,,,0.00,VWS V14.01,2013-07-22 08:26:00,
2013-07-22 01:31:00,54.5,54.0,29.62,West,270,11.4,11.4,98,0.00,,,0.00,VWS V14.01,2013-07-22 08:31:00,
2013-07-22 01:36:00,54.5,54.0,29.62,WNW,292,12.8,12.8,98,0.00,,,0.00,VWS V14.01,2013-07-22 08:36:00,
2013-07-22 01:41:00,54.5,54.0,29.62,SW,225,10.5,10.5,98,0.00,,,0.00,VWS V14.01,2013-07-22 08:41:00,
2013-07-22 01:46:00,54.5,54.0,29.62,SW,225,10.3,10.3,98,0.00,,,0.00,VWS V14.01,2013-07-22 08:46:00,
2013-07-22 01:51:00,54.5,54.0,29.62,WSW,248,9.0,9.0,98,0.00,,,0.00,VWS V14.01,2013-07-22 08:51:00,
2013-07-22 01:56:00,54.5,54.0,29.62,WSW,248,11.0,11.0,98,0.00,,,0.00,VWS V14.01,2013-07-22 08:56:00,
2013-07-22 02:01:00,54.5,54.0,29.62,WSW,248,7.8,7.8,98,0.00,,,0.00,VWS V14.01,2013-07-22 09:01:00,
2013-07-22 02:06:00,54.5,54.0,29.62,WSW,248,7.6,7.6,98,0.00,,,0.00,VWS V14.01,2013-07-22 09:06:00,
2013-07-22 02:11:00,54.7,54.1,29.62,West,270,6.3,6.3,98,0.00,,,0.00,VWS V14.01,2013-07-22 09:11:00,
2013-07-22 02:16:00,54.7,54.1,29.62,SW,225,10.1,10.1,98,0.00,,,0.00,VWS V14.01,2013-07-22 09:16:00,
2013-07-22 02:21:00,54.7,54.1,29.62,WSW,248,10.3,10.3,98,0.00,,,0.00,VWS V14.01,2013-07-22 09:21:00,
2013-07-22 02:26:00,54.9,54.3,29.62,West,270,10.5,10.5,98,0.00,,,0.00,VWS V14.01,2013-07-22 09:26:00,
2013-07-22 02:31:00,54.9,54.3,29.62,WSW,248,12.3,12.3,98,0.00,,,0.00,VWS V14.01,2013-07-22 09:31:00,
2013-07-22 02:36:00,54.9,54.3,29.62,SSW,202,9.8,9.8,98,0.00,,,0.00,VWS V14.01,2013-07-22 09:36:00,
2013-07-22 02:41:00,54.9,54.3,29.62,West,270,7.4,7.4,98,0.00,,,0.00,VWS V14.01,2013-07-22 09:41:00,
2013-07-22 02:46:00,54.9,54.3,29.62,WSW,248,6.9,6.9,98,0.00,,,0.00,VWS V14.01,2013-07-22 09:46:00,
2013-07-22 02:51:00,54.9,54.3,29.62,WSW,248,12.1,12.1,98,0.00,,,0.00,VWS V14.01,2013-07-22 09:51:00,
2013-07-22 02:56:00,54.9,54.3,29.62,WSW,248,12.5,12.5,98,0.00,,,0.00,VWS V14.01,2013-07-22 09:56:00,
2013-07-22 03:01:00,54.9,54.3,29.62,NW,315,15.9,15.9,98,0.00,,,0.00,VWS V14.01,2013-07-22 10:01:00,
2013-07-22 03:06:00,54.9,54.3,29.62,WSW,248,10.5,10.5,98,0.00,,,0.00,VWS V14.01,2013-07-22 10:06:00,
2013-07-22 03:11:00,54.9,54.3,29.62,WSW,248,10.1,10.1,98,0.00,,,0.00,VWS V14.01,2013-07-22 10:11:00,
2013-07-22 03:16:00,54.9,54.3,29.62,SSW,202,7.8,7.8,98,0.00,,,0.00,VWS V14.01,2013-07-22 10:16:00,
2013-07-22 03:21:00,54.9,54.3,29.62,SW,225,9.2,9.2,98,0.00,,,0.00,VWS V14.01,2013-07-22 10:21:00,
2013-07-22 03:25:00,54.9,54.3,29.62,WSW,248,11.0,11.0,98,0.00,,,0.00,VWS V14.01,2013-07-22 10:25:00,
2013-07-22 03:30:00,54.9,54.3,29.62,WSW,248,12.5,12.5,98,0.00,,,0.00,VWS V14.01,2013-07-22 10:30:00,
2013-07-22 03:35:00,54.9,54.3,29.62,SW,225,14.5,14.5,98,0.00,,,0.00,VWS V14.01,2013-07-22 10:35:00,
2013-07-22 03:40:00,54.9,54.3,29.62,WSW,248,10.7,10.7,98,0.00,,,0.00,VWS V14.01,2013-07-22 10:40:00,
2013-07-22 03:45:00,54.9,54.3,29.62,West,270,9.8,9.8,98,0.00,,,0.00,VWS V14.01,2013-07-22 10:45:00,
2013-07-22 03:50:00,54.9,54.3,29.62,SW,225,11.9,11.9,98,0.00,,,0.00,VWS V14.01,2013-07-22 10:50:00,
2013-07-22 03:55:00,54.9,54.3,29.62,WNW,292,7.4,7.4,98,0.00,,,0.00,VWS V14.01,2013-07-22 10:55:00,
2013-07-22 04:00:00,54.9,54.3,29.62,West,270,6.0,6.0,98,0.00,,,0.00,VWS V14.01,2013-07-22 11:00:00,
2013-07-22 04:05:00,54.9,54.3,29.62,WNW,292,8.7,8.7,98,0.00,,,0.00,VWS V14.01,2013-07-22 11:05:00,
2013-07-22 04:10:00,54.9,54.3,29.62,WSW,248,9.0,9.0,98,0.00,,,0.00,VWS V14.01,2013-07-22 11:10:00,
2013-07-22 04:15:00,54.9,54.3,29.62,SW,225,12.5,12.5,98,0.00,,,0.00,VWS V14.01,2013-07-22 11:15:00,
2013-07-22 04:20:00,54.9,54.3,29.62,WSW,248,12.1,12.1,98,0.00,,,0.00,VWS V14.01,2013-07-22 11:20:00,
2013-07-22 04:25:00,54.9,54.3,29.62,WSW,248,10.1,10.1,98,0.00,,,0.00,VWS V14.01,2013-07-22 11:25:00,
2013-07-22 04:30:00,54.9,54.3,29.62,WSW,248,9.8,9.8,98,0.00,,,0.00,VWS V14.01,2013-07-22 11:30:00,
2013-07-22 04:35:00,54.9,54.3,29.62,WSW,248,10.3,10.3,98,0.00,,,0.00,VWS V14.01,2013-07-22 11:35:00,
2013-07-22 04:40:00,54.9,54.3,29.62,WSW,248,6.0,6.0,98,0.00,,,0.00,VWS V14.01,2013-07-22 11:40:00,
2013-07-22 04:45:00,54.9,54.3,29.62,WSW,248,10.1,10.1,98,0.00,,,0.00,VWS V14.01,2013-07-22 11:45:00,
2013-07-22 04:50:00,54.9,54.3,29.62,WSW,248,10.1,10.1,98,0.00,,,0.00,VWS V14.01,2013-07-22 11:50:00,
2013-07-22 04:55:00,55.0,54.5,29.62,SSW,202,10.3,10.3,98,0.00,,,0.00,VWS V14.01,2013-07-22 11:55:00,
2013-07-22 05:00:00,55.0,54.5,29.62,WSW,248,9.8,9.8,98,0.00,,,0.00,VWS V14.01,2013-07-22 12:00:00,
2013-07-22 05:05:00,55.0,54.5,29.62,WSW,248,11.0,11.0,98,0.00,,,0.00,VWS V14.01,2013-07-22 12:05:00,
2013-07-22 05:10:00,55.0,54.5,29.62,West,270,15.4,15.4,98,0.00,,,0.00,VWS V14.01,2013-07-22 12:10:00,
2013-07-22 05:15:00,55.0,54.5,29.62,WSW,248,12.8,12.8,98,0.00,,,0.00,VWS V14.01,2013-07-22 12:15:00,
2013-07-22 05:20:00,55.0,54.5,29.62,WSW,248,12.5,12.5,98,0.00,,,0.00,VWS V14.01,2013-07-22 12:20:00,
2013-07-22 05:25:00,55.0,54.5,29.65,WSW,248,8.1,8.1,98,0.00,,,0.00,VWS V14.01,2013-07-22 12:25:00,
2013-07-22 05:30:00,55.0,54.5,29.65,SW,225,6.3,6.3,98,0.00,,,0.00,VWS V14.01,2013-07-22 12:30:00,
2013-07-22 05:35:00,55.2,54.7,29.65,WSW,248,10.7,10.7,98,0.00,,,0.00,VWS V14.01,2013-07-22 12:35:00,
2013-07-22 05:40:00,55.2,54.7,29.65,SW,225,7.8,7.8,98,0.00,,,0.00,VWS V14.01,2013-07-22 12:40:00,
2013-07-22 05:45:00,55.2,54.7,29.65,WSW,248,10.3,10.3,98,0.00,,,0.00,VWS V14.01,2013-07-22 12:45:00,
2013-07-22 05:50:00,55.2,54.7,29.65,WSW,248,8.7,8.7,98,0.00,,,0.00,VWS V14.01,2013-07-22 12:50:00,
2013-07-22 05:55:00,55.2,54.7,29.65,WSW,248,12.5,12.5,98,0.00,,,0.00,VWS V14.01,2013-07-22 12:55:00,
2013-07-22 06:00:00,55.2,54.7,29.65,SW,225,6.3,6.3,98,0.00,,,0.00,VWS V14.01,2013-07-22 13:00:00,
2013-07-22 06:05:00,55.2,54.7,29.65,WSW,248,6.0,6.0,98,0.00,,,0.00,VWS V14.01,2013-07-22 13:05:00,
2013-07-22 06:10:00,55.2,54.7,29.65,SW,225,7.8,7.8,98,0.00,,,0.00,VWS V14.01,2013-07-22 13:10:00,
2013-07-22 06:15:00,55.4,54.8,29.65,SW,225,4.9,4.9,98,0.00,,,0.00,VWS V14.01,2013-07-22 13:15:00,
2013-07-22 06:20:00,55.4,54.8,29.65,WSW,248,6.5,6.5,98,0.00,,,0.00,VWS V14.01,2013-07-22 13:20:00,
2013-07-22 06:25:00,55.4,54.8,29.68,WSW,248,8.1,8.1,98,0.00,,,0.00,VWS V14.01,2013-07-22 13:25:00,
2013-07-22 06:30:00,55.4,54.8,29.68,SW,225,4.0,4.0,98,0.00,,,0.00,VWS V14.01,2013-07-22 13:30:00,
2013-07-22 06:35:00,55.4,54.8,29.68,SW,225,8.5,8.5,98,0.00,,,0.00,VWS V14.01,2013-07-22 13:35:00,
2013-07-22 06:40:00,55.6,55.0,29.68,WSW,248,6.0,6.0,98,0.00,,,0.00,VWS V14.01,2013-07-22 13:40:00,
2013-07-22 06:45:00,55.6,55.0,29.68,WSW,248,5.8,5.8,98,0.00,,,0.00,VWS V14.01,2013-07-22 13:45:00,
2013-07-22 06:50:00,55.6,55.0,29.68,WSW,248,3.6,3.6,98,0.00,,,0.00,VWS V14.01,2013-07-22 13:50:00,
2013-07-22 06:55:00,55.6,55.0,29.68,SW,225,6.0,6.0,98,0.00,,,0.00,VWS V14.01,2013-07-22 13:55:00,
2013-07-22 07:00:00,55.6,55.0,29.68,WSW,248,5.6,5.6,98,0.00,,,0.00,VWS V14.01,2013-07-22 14:00:00,
2013-07-22 07:05:00,55.8,55.2,29.68,West,270,5.6,5.6,98,0.00,,,0.00,VWS V14.01,2013-07-22 14:05:00,
2013-07-22 07:10:00,55.8,55.2,29.68,WSW,248,4.3,4.3,98,0.00,,,0.00,VWS V14.01,2013-07-22 14:10:00,
2013-07-22 07:15:00,55.8,55.2,29.68,West,270,5.4,5.4,98,0.00,,,0.00,VWS V14.01,2013-07-22 14:15:00,
2013-07-22 07:20:00,55.9,55.4,29.68,West,270,3.8,3.8,98,0.00,,,0.00,VWS V14.01,2013-07-22 14:20:00,
2013-07-22 07:25:00,55.9,55.4,29.68,WSW,248,3.6,3.6,98,0.00,,,0.00,VWS V14.01,2013-07-22 14:25:00,
2013-07-22 07:30:00,55.9,55.4,29.68,West,270,5.4,5.4,98,0.00,,,0.00,VWS V14.01,2013-07-22 14:30:00,
2013-07-22 07:35:00,56.1,55.6,29.68,West,270,6.0,6.0,98,0.00,,,0.00,VWS V14.01,2013-07-22 14:35:00,
2013-07-22 07:40:00,56.1,55.6,29.68,West,270,6.5,6.5,98,0.00,,,0.00,VWS V14.01,2013-07-22 14:40:00,
2013-07-22 07:45:00,56.3,55.8,29.68,WNW,292,4.0,4.0,98,0.00,,,0.00,VWS V14.01,2013-07-22 14:45:00,
2013-07-22 07:50:00,56.3,55.8,29.68,WNW,292,5.4,5.4,98,0.00,,,0.00,VWS V14.01,2013-07-22 14:50:00,
2013-07-22 07:55:00,56.3,55.8,29.68,WSW,248,5.4,5.4,98,0.00,,,0.00,VWS V14.01,2013-07-22 14:55:00,
2013-07-22 08:00:00,56.5,55.9,29.68,West,270,3.4,3.4,98,0.00,,,0.00,VWS V14.01,2013-07-22 15:00:00,
2013-07-22 08:05:00,56.5,55.9,29.68,WNW,292,3.4,3.4,98,0.00,,,0.00,VWS V14.01,2013-07-22 15:05:00,
2013-07-22 08:10:00,56.7,56.1,29.68,WNW,292,6.0,6.0,98,0.00,,,0.00,VWS V14.01,2013-07-22 15:10:00,
2013-07-22 08:15:00,56.7,56.1,29.68,WNW,292,6.0,6.0,98,0.00,,,0.00,VWS V14.01,2013-07-22 15:15:00,
2013-07-22 08:20:00,56.7,56.1,29.68,WSW,248,2.9,2.9,98,0.00,,,0.00,VWS V14.01,2013-07-22 15:20:00,
2013-07-22 08:25:00,56.8,56.3,29.68,WSW,248,3.1,3.1,98,0.00,,,0.00,VWS V14.01,2013-07-22 15:25:00,
2013-07-22 08:30:00,57.0,56.5,29.68,WSW,248,7.2,7.2,98,0.00,,,0.00,VWS V14.01,2013-07-22 15:30:00,
2013-07-22 08:35:00,57.0,56.5,29.68,SW,225,7.4,7.4,98,0.00,,,0.00,VWS V14.01,2013-07-22 15:35:00,
2013-07-22 08:40:00,57.2,56.6,29.68,NNW,338,3.8,3.8,98,0.00,,,0.00,VWS V14.01,2013-07-22 15:40:00,
2013-07-22 08:45:00,57.4,56.8,29.68,WSW,248,6.3,6.3,98,0.00,,,0.00,VWS V14.01,2013-07-22 15:45:00,
2013-07-22 08:50:00,57.6,57.0,29.68,WSW,248,5.6,5.6,98,0.00,,,0.00,VWS V14.01,2013-07-22 15:50:00,
2013-07-22 08:55:00,57.7,57.2,29.68,West,270,3.8,3.8,98,0.00,,,0.00,VWS V14.01,2013-07-22 15:55:00,
2013-07-22 09:00:00,57.9,57.4,29.68,WNW,292,7.4,7.4,98,0.00,,,0.00,VWS V14.01,2013-07-22 16:00:00,
2013-07-22 09:05:00,58.1,57.5,29.68,SW,225,3.1,3.1,98,0.00,,,0.00,VWS V14.01,2013-07-22 16:05:00,
2013-07-22 09:10:00,57.9,57.4,29.68,WNW,292,5.4,5.4,98,0.00,,,0.00,VWS V14.01,2013-07-22 16:10:00,
2013-07-22 09:15:00,57.9,57.4,29.68,WSW,248,3.4,3.4,98,0.00,,,0.00,VWS V14.01,2013-07-22 16:15:00,
2013-07-22 09:20:00,58.1,57.5,29.68,WSW,248,12.5,12.5,98,0.00,,,0.00,VWS V14.01,2013-07-22 16:20:00,
2013-07-22 09:25:00,58.1,57.5,29.68,SSW,202,8.1,8.1,98,0.00,,,0.00,VWS V14.01,2013-07-22 16:25:00,
2013-07-22 09:30:00,58.1,57.5,29.68,West,270,7.2,7.2,98,0.00,,,0.00,VWS V14.01,2013-07-22 16:30:00,
2013-07-22 09:35:00,57.9,57.4,29.68,SSW,202,5.4,5.4,98,0.00,,,0.00,VWS V14.01,2013-07-22 16:35:00,
2013-07-22 09:40:00,57.9,57.4,29.68,West,270,8.7,8.7,98,0.00,,,0.00,VWS V14.01,2013-07-22 16:40:00,
2013-07-22 09:45:00,58.1,57.5,29.68,West,270,5.8,5.8,98,0.00,,,0.00,VWS V14.01,2013-07-22 16:45:00,
2013-07-22 09:50:00,58.1,57.5,29.68,NW,315,6.9,6.9,98,0.00,,,0.00,VWS V14.01,2013-07-22 16:50:00,
2013-07-22 09:55:00,58.1,57.5,29.68,WSW,248,9.6,9.6,98,0.00,,,0.00,VWS V14.01,2013-07-22 16:55:00,
2013-07-22 10:00:00,58.1,57.5,29.68,WSW,248,4.0,4.0,98,0.00,,,0.00,VWS V14.01,2013-07-22 17:00:00,
2013-07-22 10:05:00,58.1,57.5,29.68,WSW,248,6.0,6.0,98,0.00,,,0.00,VWS V14.01,2013-07-22 17:05:00,
2013-07-22 10:10:00,59.2,58.6,29.68,WSW,248,5.8,5.8,98,0.00,,,0.00,VWS V14.01,2013-07-22 17:10:00,
2013-07-22 10:15:00,59.2,58.6,29.68,WNW,292,10.3,10.3,98,0.00,,,0.00,VWS V14.01,2013-07-22 17:15:00,
2013-07-22 10:20:00,59.5,59.0,29.68,WSW,248,8.7,8.7,98,0.00,,,0.00,VWS V14.01,2013-07-22 17:20:00,
2013-07-22 10:25:00,59.0,58.4,29.68,West,270,7.4,7.4,98,0.00,,,0.00,VWS V14.01,2013-07-22 17:25:00,
2013-07-22 10:30:00,59.2,58.6,29.68,West,270,6.5,6.5,98,0.00,,,0.00,VWS V14.01,2013-07-22 17:30:00,
2013-07-22 10:35:00,58.8,58.0,29.68,WSW,248,7.6,7.6,97,0.00,,,0.00,VWS V14.01,2013-07-22 17:35:00,
2013-07-22 10:40:00,58.8,57.7,29.68,WSW,248,7.4,7.4,96,0.00,,,0.00,VWS V14.01,2013-07-22 17:40:00,
2013-07-22 10:45:00,59.0,57.6,29.68,WSW,248,8.7,8.7,95,0.00,,,0.00,VWS V14.01,2013-07-22 17:45:00,
2013-07-22 10:50:00,59.0,57.3,29.68,WSW,248,7.6,7.6,94,0.00,,,0.00,VWS V14.01,2013-07-22 17:50:00,
2013-07-22 10:55:00,59.0,57.3,29.68,SW,225,6.3,6.3,94,0.00,,,0.00,VWS V14.01,2013-07-22 17:55:00,
2013-07-22 11:00:00,59.2,57.5,29.68,West,270,6.5,6.5,94,0.00,,,0.00,VWS V14.01,2013-07-22 18:00:00,
2013-07-22 11:05:00,59.4,57.3,29.68,WSW,248,5.6,5.6,93,0.00,,,0.00,VWS V14.01,2013-07-22 18:05:00,
2013-07-22 11:11:00,59.7,57.7,29.68,SW,225,6.3,6.3,93,0.00,,,0.00,VWS V14.01,2013-07-22 18:11:00,
2013-07-22 11:16:00,59.7,57.7,29.68,SW,225,6.3,6.3,93,0.00,,,0.00,VWS V14.01,2013-07-22 18:16:00,
2013-07-22 11:21:00,59.7,57.7,29.68,SW,225,6.3,6.3,93,0.00,,,0.00,VWS V14.01,2013-07-22 18:21:00,
2013-07-22 11:26:00,59.7,57.7,29.68,WNW,292,12.5,12.5,93,0.00,,,0.00,VWS V14.01,2013-07-22 18:26:00,
2013-07-22 11:31:00,59.5,57.2,29.68,West,270,12.5,12.5,92,0.00,,,0.00,VWS V14.01,2013-07-22 18:31:00,
2013-07-22 11:36:00,59.7,57.4,29.68,West,270,12.5,12.5,92,0.00,,,0.00,VWS V14.01,2013-07-22 18:36:00,
2013-07-22 11:41:00,59.9,57.6,29.68,WNW,292,6.9,6.9,92,0.00,,,0.00,VWS V14.01,2013-07-22 18:41:00,
2013-07-22 11:46:00,59.7,57.1,29.68,NW,315,13.2,13.2,91,0.00,,,0.00,VWS V14.01,2013-07-22 18:46:00,
2013-07-22 11:51:00,59.9,57.3,29.68,WNW,292,16.8,16.8,91,0.00,,,0.00,VWS V14.01,2013-07-22 18:51:00,
2013-07-22 11:56:00,59.9,57.3,29.68,West,270,16.1,16.1,91,0.00,,,0.00,VWS V14.01,2013-07-22 18:56:00,
2013-07-22 12:01:00,60.3,57.6,29.68,SW,225,8.7,8.7,91,0.00,,,0.00,VWS V14.01,2013-07-22 19:01:00,
2013-07-22 12:06:00,60.4,57.8,29.68,SW,225,7.2,7.2,91,0.00,,,0.00,VWS V14.01,2013-07-22 19:06:00,
2013-07-22 12:11:00,60.4,57.2,29.68,West,270,6.0,6.0,89,0.00,,,0.00,VWS V14.01,2013-07-22 19:11:00,
2013-07-22 12:17:00,60.4,57.2,29.68,WSW,248,12.1,12.1,89,0.00,,,0.00,VWS V14.01,2013-07-22 19:17:00,
2013-07-22 12:22:00,60.8,57.2,29.68,WSW,248,6.0,6.0,88,0.00,,,0.00,VWS V14.01,2013-07-22 19:22:00,
2013-07-22 12:27:00,60.6,57.0,29.68,WSW,248,12.1,12.1,88,0.00,,,0.00,VWS V14.01,2013-07-22 19:27:00,
2013-07-22 12:32:00,60.4,56.9,29.68,WNW,292,11.0,11.0,88,0.00,,,0.00,VWS V14.01,2013-07-22 19:32:00,
2013-07-22 12:37:00,60.4,56.6,29.68,SW,225,12.8,12.8,87,0.00,,,0.00,VWS V14.01,2013-07-22 19:37:00,
2013-07-22 12:42:00,60.6,56.7,29.68,West,270,8.5,8.5,87,0.00,,,0.00,VWS V14.01,2013-07-22 19:42:00,
2013-07-22 12:47:00,60.8,56.6,29.68,WSW,248,10.3,10.3,86,0.00,,,0.00,VWS V14.01,2013-07-22 19:47:00,
2013-07-22 12:52:00,61.0,56.1,29.68,WSW,248,5.8,5.8,84,0.00,,,0.00,VWS V14.01,2013-07-22 19:52:00,
2013-07-22 12:57:00,61.0,56.5,29.68,NNW,338,14.8,14.8,85,0.00,,,0.00,VWS V14.01,2013-07-22 19:57:00,
2013-07-22 13:02:00,60.4,56.2,29.68,SSW,202,10.7,10.7,86,0.00,,,0.00,VWS V14.01,2013-07-22 20:02:00,
2013-07-22 13:07:00,60.1,55.9,29.68,NW,315,16.8,16.8,86,0.00,,,0.00,VWS V14.01,2013-07-22 20:07:00,
2013-07-22 13:12:00,60.1,56.2,29.68,WNW,292,12.8,12.8,87,0.00,,,0.00,VWS V14.01,2013-07-22 20:12:00,
2013-07-22 13:16:00,59.9,56.0,29.68,WSW,248,17.0,17.0,87,0.00,,,0.00,VWS V14.01,2013-07-22 20:16:00,
2013-07-22 13:17:00,59.9,56.0,29.68,WSW,248,7.8,7.8,87,0.00,,,0.00,VWS V14.01,2013-07-22 20:17:00,
2013-07-22 13:22:00,59.9,56.3,29.68,WSW,248,14.8,14.8,88,0.00,,,0.00,VWS V14.01,2013-07-22 20:22:00,
2013-07-22 13:27:00,59.9,56.3,29.68,West,270,12.5,12.5,88,0.00,,,0.00,VWS V14.01,2013-07-22 20:27:00,
2013-07-22 13:32:00,60.1,56.5,29.68,SW,225,17.5,17.5,88,0.00,,,0.00,VWS V14.01,2013-07-22 20:32:00,
2013-07-22 13:37:00,59.9,56.3,29.68,WSW,248,11.0,11.0,88,0.00,,,0.00,VWS V14.01,2013-07-22 20:37:00,
2013-07-22 13:42:00,60.1,56.5,29.68,WSW,248,11.0,11.0,88,0.00,,,0.00,VWS V14.01,2013-07-22 20:42:00,
2013-07-22 13:43:00,60.1,56.5,29.68,WSW,248,10.5,10.5,88,0.00,,,0.00,VWS V14.01,2013-07-22 20:43:00,
2013-07-22 13:48:00,60.4,56.6,29.68,WSW,248,10.5,10.5,87,0.00,,,0.00,VWS V14.01,2013-07-22 20:48:00,
2013-07-22 13:53:00,60.8,56.6,29.68,WSW,248,17.7,17.7,86,0.00,,,0.00,VWS V14.01,2013-07-22 20:53:00,
2013-07-22 13:58:00,60.8,55.9,29.65,WSW,248,17.9,17.9,84,0.00,,,0.00,VWS V14.01,2013-07-22 20:58:00,
2013-07-22 14:03:00,60.6,56.1,29.65,WSW,248,14.8,14.8,85,0.00,,,0.00,VWS V14.01,2013-07-22 21:03:00,
2013-07-22 14:08:00,60.6,56.1,29.65,SW,225,10.7,10.7,85,0.00,,,0.00,VWS V14.01,2013-07-22 21:08:00,
2013-07-22 14:13:00,60.3,55.7,29.65,WSW,248,18.6,18.6,85,0.00,,,0.00,VWS V14.01,2013-07-22 21:13:00,
2013-07-22 14:18:00,59.9,56.0,29.65,WSW,248,9.8,9.8,87,0.00,,,0.00,VWS V14.01,2013-07-22 21:18:00,
2013-07-22 14:23:00,59.7,56.2,29.65,SW,225,19.0,19.0,88,0.00,,,0.00,VWS V14.01,2013-07-22 21:23:00,
2013-07-22 14:28:00,59.4,56.1,29.65,WSW,248,16.8,16.8,89,0.00,,,0.00,VWS V14.01,2013-07-22 21:28:00,
2013-07-22 14:33:00,59.2,56.2,29.65,West,270,12.5,12.5,90,0.00,,,0.00,VWS V14.01,2013-07-22 21:33:00,
2013-07-22 14:38:00,59.5,56.6,29.65,WSW,248,8.5,8.5,90,0.00,,,0.00,VWS V14.01,2013-07-22 21:38:00,
2013-07-22 14:43:00,59.7,56.8,29.65,WSW,248,11.0,11.0,90,0.00,,,0.00,VWS V14.01,2013-07-22 21:43:00,
2013-07-22 14:48:00,59.7,56.8,29.65,WSW,248,8.7,8.7,90,0.00,,,0.00,VWS V14.01,2013-07-22 21:48:00,
2013-07-22 14:53:00,60.1,57.1,29.65,WSW,248,19.5,19.5,90,0.00,,,0.00,VWS V14.01,2013-07-22 21:53:00,
2013-07-22 14:58:00,60.4,57.2,29.65,West,270,10.7,10.7,89,0.00,,,0.00,VWS V14.01,2013-07-22 21:58:00,
2013-07-22 15:03:00,60.6,57.4,29.65,West,270,17.2,17.2,89,0.00,,,0.00,VWS V14.01,2013-07-22 22:03:00,
2013-07-22 15:08:00,60.3,56.7,29.65,WSW,248,15.2,15.2,88,0.00,,,0.00,VWS V14.01,2013-07-22 22:08:00,
2013-07-22 15:13:00,60.1,56.8,29.65,West,270,15.4,15.4,89,0.00,,,0.00,VWS V14.01,2013-07-22 22:13:00,
2013-07-22 15:18:00,59.9,56.7,29.65,WNW,292,11.9,11.9,89,0.00,,,0.00,VWS V14.01,2013-07-22 22:18:00,
2013-07-22 15:23:00,59.9,57.0,29.65,SW,225,7.8,7.8,90,0.00,,,0.00,VWS V14.01,2013-07-22 22:23:00,
2013-07-22 15:28:00,59.9,56.7,29.65,WSW,248,13.0,13.0,89,0.00,,,0.00,VWS V14.01,2013-07-22 22:28:00,
2013-07-22 15:33:00,59.9,56.7,29.65,WSW,248,15.4,15.4,89,0.00,,,0.00,VWS V14.01,2013-07-22 22:33:00,
2013-07-22 15:37:00,59.9,56.7,29.65,WSW,248,19.7,19.7,89,0.00,,,0.00,VWS V14.01,2013-07-22 22:37:00,
2013-07-22 15:42:00,59.9,56.7,29.65,SSW,202,15.2,15.2,89,0.00,,,0.00,VWS V14.01,2013-07-22 22:42:00,
2013-07-22 15:47:00,59.7,56.5,29.65,SW,225,15.2,15.2,89,0.00,,,0.00,VWS V14.01,2013-07-22 22:47:00,
2013-07-22 15:52:00,59.7,56.8,29.65,WNW,292,21.0,21.0,90,0.00,,,0.00,VWS V14.01,2013-07-22 22:52:00,
2013-07-22 15:57:00,59.5,56.6,29.62,WSW,248,13.6,13.6,90,0.00,,,0.00,VWS V14.01,2013-07-22 22:57:00,
2013-07-22 16:02:00,59.5,56.6,29.62,WSW,248,19.7,19.7,90,0.00,,,0.00,VWS V14.01,2013-07-22 23:02:00,
2013-07-22 16:07:00,59.4,56.7,29.62,WSW,248,14.8,14.8,91,0.00,,,0.00,VWS V14.01,2013-07-22 23:07:00,
2013-07-22 16:12:00,59.4,56.4,29.62,West,270,17.2,17.2,90,0.00,,,0.00,VWS V14.01,2013-07-22 23:12:00,
2013-07-22 16:17:00,59.4,56.4,29.62,WNW,292,10.7,10.7,90,0.00,,,0.00,VWS V14.01,2013-07-22 23:17:00,
2013-07-22 16:22:00,59.5,56.6,29.62,WSW,248,14.5,14.5,90,0.00,,,0.00,VWS V14.01,2013-07-22 23:22:00,
2013-07-22 16:27:00,59.4,56.4,29.62,WSW,248,10.3,10.3,90,0.00,,,0.00,VWS V14.01,2013-07-22 23:27:00,
2013-07-22 16:32:00,59.2,56.6,29.62,WNW,292,13.6,13.6,91,0.00,,,0.00,VWS V14.01,2013-07-22 23:32:00,
2013-07-22 16:37:00,59.0,56.4,29.62,WNW,292,12.5,12.5,91,0.00,,,0.00,VWS V14.01,2013-07-22 23:37:00,
2013-07-22 16:42:00,59.2,56.9,29.62,West,270,14.8,14.8,92,0.00,,,0.00,VWS V14.01,2013-07-22 23:42:00,
2013-07-22 16:47:00,59.2,56.9,29.62,West,270,10.7,10.7,92,0.00,,,0.00,VWS V14.01,2013-07-22 23:47:00,
2013-07-22 16:52:00,59.0,56.7,29.62,WSW,248,11.9,11.9,92,0.00,,,0.00,VWS V14.01,2013-07-22 23:52:00,
2013-07-22 16:57:00,58.8,56.5,29.65,WSW,248,17.5,17.5,92,0.00,,,0.00,VWS V14.01,2013-07-22 23:57:00,
2013-07-22 17:02:00,58.6,56.6,29.65,SW,225,13.4,13.4,93,0.00,,,0.00,VWS V14.01,2013-07-23 00:02:00,
2013-07-22 17:07:00,58.5,56.7,29.65,WSW,248,11.2,11.2,94,0.00,,,0.00,VWS V14.01,2013-07-23 00:07:00,
2013-07-22 17:12:00,58.5,56.7,29.65,WNW,292,15.4,15.4,94,0.00,,,0.00,VWS V14.01,2013-07-23 00:12:00,
2013-07-22 17:17:00,58.3,56.9,29.65,WSW,248,12.8,12.8,95,0.00,,,0.00,VWS V14.01,2013-07-23 00:17:00,
2013-07-22 17:22:00,58.1,56.7,29.65,WSW,248,14.1,14.1,95,0.00,,,0.00,VWS V14.01,2013-07-23 00:22:00,
2013-07-22 17:27:00,58.1,57.0,29.65,WNW,292,11.9,11.9,96,0.00,,,0.00,VWS V14.01,2013-07-23 00:27:00,
2013-07-22 17:32:00,58.1,57.0,29.65,WSW,248,14.1,14.1,96,0.00,,,0.00,VWS V14.01,2013-07-23 00:32:00,
2013-07-22 17:37:00,58.1,57.3,29.65,SSW,202,17.5,17.5,97,0.00,,,0.00,VWS V14.01,2013-07-23 00:37:00,
2013-07-22 17:42:00,57.9,57.1,29.65,West,270,16.6,16.6,97,0.00,,,0.00,VWS V14.01,2013-07-23 00:42:00,
2013-07-22 17:47:00,57.9,57.1,29.65,WSW,248,17.0,17.0,97,0.00,,,0.00,VWS V14.01,2013-07-23 00:47:00,
2013-07-22 17:52:00,57.9,57.1,29.65,WSW,248,17.2,17.2,97,0.00,,,0.00,VWS V14.01,2013-07-23 00:52:00,
2013-07-22 17:57:00,57.7,57.2,29.65,SSW,202,14.8,14.8,98,0.00,,,0.00,VWS V14.01,2013-07-23 00:57:00,
2013-07-22 18:02:00,57.7,57.2,29.65,South,180,15.9,15.9,98,0.00,,,0.00,VWS V14.01,2013-07-23 01:02:00,
2013-07-22 18:07:00,57.9,57.4,29.65,WSW,248,12.1,12.1,98,0.00,,,0.00,VWS V14.01,2013-07-23 01:07:00,
2013-07-22 18:12:00,57.9,57.4,29.65,WSW,248,15.9,15.9,98,0.00,,,0.00,VWS V14.01,2013-07-23 01:12:00,
2013-07-22 18:17:00,57.9,57.4,29.65,WSW,248,16.8,16.8,98,0.00,,,0.00,VWS V14.01,2013-07-23 01:17:00,
2013-07-22 18:22:00,57.9,57.4,29.65,WSW,248,12.8,12.8,98,0.00,,,0.00,VWS V14.01,2013-07-23 01:22:00,
2013-07-22 18:27:00,57.9,57.4,29.65,West,270,11.9,11.9,98,0.00,,,0.00,VWS V14.01,2013-07-23 01:27:00,
2013-07-22 18:32:00,58.1,57.5,29.65,WSW,248,10.7,10.7,98,0.00,,,0.00,VWS V14.01,2013-07-23 01:32:00,
2013-07-22 18:37:00,57.9,57.4,29.65,WSW,248,10.1,10.1,98,0.00,,,0.00,VWS V14.01,2013-07-23 01:37:00,
2013-07-22 18:42:00,57.9,57.4,29.65,West,270,12.3,12.3,98,0.00,,,0.00,VWS V14.01,2013-07-23 01:42:00,
2013-07-22 18:47:00,57.9,57.4,29.65,WSW,248,13.2,13.2,98,0.00,,,0.00,VWS V14.01,2013-07-23 01:47:00,
2013-07-22 18:52:00,57.7,57.2,29.65,NW,315,10.5,10.5,98,0.00,,,0.00,VWS V14.01,2013-07-23 01:52:00,
2013-07-22 18:57:00,57.7,57.2,29.68,WNW,292,10.3,10.3,98,0.00,,,0.00,VWS V14.01,2013-07-23 01:57:00,
2013-07-22 19:02:00,57.7,57.2,29.68,WSW,248,12.3,12.3,98,0.00,,,0.00,VWS V14.01,2013-07-23 02:02:00,
2013-07-22 19:07:00,57.7,57.2,29.68,WNW,292,9.6,9.6,98,0.00,,,0.00,VWS V14.01,2013-07-23 02:07:00,
2013-07-22 19:12:00,57.7,57.2,29.65,SW,225,10.5,10.5,98,0.00,,,0.00,VWS V14.01,2013-07-23 02:12:00,
2013-07-22 19:17:00,57.6,57.0,29.65,WSW,248,12.8,12.8,98,0.00,,,0.00,VWS V14.01,2013-07-23 02:17:00,
2013-07-22 19:22:00,57.6,57.0,29.65,WNW,292,11.0,11.0,98,0.00,,,0.00,VWS V14.01,2013-07-23 02:22:00,
2013-07-22 19:27:00,57.6,57.0,29.65,WSW,248,10.3,10.3,98,0.00,,,0.00,VWS V14.01,2013-07-23 02:27:00,
2013-07-22 19:32:00,57.4,56.8,29.65,SW,225,15.4,15.4,98,0.00,,,0.00,VWS V14.01,2013-07-23 02:32:00,
2013-07-22 19:37:00,57.4,56.8,29.65,SSW,202,17.2,17.2,98,0.00,,,0.00,VWS V14.01,2013-07-23 02:37:00,
2013-07-22 19:42:00,57.4,56.8,29.65,SSW,202,17.5,17.5,98,0.00,,,0.00,VWS V14.01,2013-07-23 02:42:00,
2013-07-22 19:47:00,57.2,56.6,29.65,WSW,248,13.0,13.0,98,0.00,,,0.00,VWS V14.01,2013-07-23 02:47:00,
2013-07-22 19:52:00,57.2,56.6,29.65,WSW,248,11.0,11.0,98,0.00,,,0.00,VWS V14.01,2013-07-23 02:52:00,
2013-07-22 19:57:00,57.2,56.6,29.65,WSW,248,10.1,10.1,98,0.00,,,0.00,VWS V14.01,2013-07-23 02:57:00,
2013-07-22 20:02:00,57.2,56.6,29.65,SSW,202,7.8,7.8,98,0.00,,,0.00,VWS V14.01,2013-07-23 03:02:00,
2013-07-22 20:07:00,57.0,56.5,29.65,WSW,248,10.5,10.5,98,0.00,,,0.00,VWS V14.01,2013-07-23 03:07:00,
2013-07-22 20:12:00,57.0,56.5,29.65,West,270,10.1,10.1,98,0.00,,,0.00,VWS V14.01,2013-07-23 03:12:00,
2013-07-22 20:17:00,57.0,56.5,29.65,SW,225,10.7,10.7,98,0.00,,,0.00,VWS V14.01,2013-07-23 03:17:00,
2013-07-22 20:22:00,57.0,56.5,29.65,WSW,248,11.0,11.0,98,0.00,,,0.00,VWS V14.01,2013-07-23 03:22:00,
2013-07-22 20:27:00,57.0,56.5,29.65,SW,225,12.8,12.8,98,0.00,,,0.00,VWS V14.01,2013-07-23 03:27:00,
2013-07-22 20:32:00,56.8,56.3,29.65,WSW,248,8.5,8.5,98,0.00,,,0.00,VWS V14.01,2013-07-23 03:32:00,
2013-07-22 20:37:00,56.8,56.3,29.65,WSW,248,11.9,11.9,98,0.00,,,0.00,VWS V14.01,2013-07-23 03:37:00,
2013-07-22 20:42:00,56.7,56.1,29.65,West,270,15.2,15.2,98,0.00,,,0.00,VWS V14.01,2013-07-23 03:42:00,
2013-07-22 20:47:00,56.7,56.1,29.65,WSW,248,9.8,9.8,98,0.00,,,0.00,VWS V14.01,2013-07-23 03:47:00,
2013-07-22 20:52:00,56.7,56.1,29.65,WSW,248,8.5,8.5,98,0.00,,,0.00,VWS V14.01,2013-07-23 03:52:00,
2013-07-22 20:57:00,56.7,56.1,29.65,SW,225,17.0,17.0,98,0.00,,,0.00,VWS V14.01,2013-07-23 03:57:00,
2013-07-22 21:01:00,56.7,56.1,29.65,WNW,292,12.8,12.8,98,0.00,,,0.00,VWS V14.01,2013-07-23 04:01:00,
2013-07-22 21:06:00,56.7,56.1,29.65,WNW,292,11.0,11.0,98,0.00,,,0.00,VWS V14.01,2013-07-23 04:06:00,
2013-07-22 21:11:00,56.7,56.1,29.65,WNW,292,6.5,6.5,98,0.00,,,0.00,VWS V14.01,2013-07-23 04:11:00,
2013-07-22 21:16:00,56.7,56.1,29.65,WSW,248,15.7,15.7,98,0.00,,,0.00,VWS V14.01,2013-07-23 04:16:00,
2013-07-22 21:21:00,56.7,56.1,29.65,WSW,248,13.2,13.2,98,0.00,,,0.00,VWS V14.01,2013-07-23 04:21:00,
2013-07-22 21:26:00,56.7,56.1,29.65,West,270,13.0,13.0,98,0.00,,,0.00,VWS V14.01,2013-07-23 04:26:00,
2013-07-22 21:31:00,56.7,56.1,29.65,West,270,10.5,10.5,98,0.00,,,0.00,VWS V14.01,2013-07-23 04:31:00,
2013-07-22 21:36:00,56.7,56.1,29.65,West,270,11.0,11.0,98,0.00,,,0.00,VWS V14.01,2013-07-23 04:36:00,
2013-07-22 21:41:00,56.7,56.1,29.68,WSW,248,12.5,12.5,98,0.00,,,0.00,VWS V14.01,2013-07-23 04:41:00,
2013-07-22 21:46:00,56.7,56.1,29.68,SW,225,9.8,9.8,98,0.00,,,0.00,VWS V14.01,2013-07-23 04:46:00,
2013-07-22 21:51:00,56.7,56.1,29.68,West,270,10.7,10.7,98,0.00,,,0.00,VWS V14.01,2013-07-23 04:51:00,
2013-07-22 21:56:00,56.7,56.1,29.68,West,270,10.7,10.7,98,0.00,,,0.00,VWS V14.01,2013-07-23 04:56:00,
2013-07-22 22:01:00,56.7,56.1,29.68,SSW,202,7.8,7.8,98,0.00,,,0.00,VWS V14.01,2013-07-23 05:01:00,
2013-07-22 22:06:00,56.7,56.1,29.68,WSW,248,7.6,7.6,98,0.00,,,0.00,VWS V14.01,2013-07-23 05:06:00,
2013-07-22 22:11:00,56.7,56.1,29.68,WSW,248,7.6,7.6,98,0.00,,,0.00,VWS V14.01,2013-07-23 05:11:00,
2013-07-22 22:16:00,56.7,56.1,29.68,WSW,248,7.6,7.6,98,0.00,,,0.00,VWS V14.01,2013-07-23 05:16:00,
2013-07-22 22:21:00,56.7,56.1,29.68,WSW,248,7.6,7.6,98,0.00,,,0.00,VWS V14.01,2013-07-23 05:21:00,
2013-07-22 22:26:00,56.7,56.1,29.68,WSW,248,10.1,10.1,98,0.00,,,0.00,VWS V14.01,2013-07-23 05:26:00,
2013-07-22 22:31:00,56.7,56.1,29.68,WSW,248,10.1,10.1,98,0.00,,,0.00,VWS V14.01,2013-07-23 05:31:00,
2013-07-22 22:36:00,56.7,56.1,29.68,WSW,248,10.1,10.1,98,0.00,,,0.00,VWS V14.01,2013-07-23 05:36:00,
2013-07-22 22:41:00,56.3,55.8,29.68,West,270,8.7,8.7,98,0.00,,,0.00,VWS V14.01,2013-07-23 05:41:00,
2013-07-22 22:46:00,56.3,55.8,29.68,WSW,248,8.5,8.5,98,0.00,,,0.00,VWS V14.01,2013-07-23 05:46:00,
2013-07-22 22:51:00,56.3,55.8,29.68,WSW,248,6.5,6.5,98,0.00,,,0.00,VWS V14.01,2013-07-23 05:51:00,
2013-07-22 22:56:00,56.3,55.8,29.68,West,270,8.7,8.7,98,0.00,,,0.00,VWS V14.01,2013-07-23 05:56:00,
2013-07-22 23:01:00,56.3,55.8,29.68,WSW,248,12.3,12.3,98,0.00,,,0.00,VWS V14.01,2013-07-23 06:01:00,
2013-07-22 23:06:00,56.3,55.8,29.68,West,270,7.8,7.8,98,0.00,,,0.00,VWS V14.01,2013-07-23 06:06:00,
2013-07-22 23:11:00,56.1,55.6,29.68,WSW,248,12.5,12.5,98,0.00,,,0.00,VWS V14.01,2013-07-23 06:11:00,
2013-07-22 23:16:00,56.1,55.6,29.68,WSW,248,12.8,12.8,98,0.00,,,0.00,VWS V14.01,2013-07-23 06:16:00,
2013-07-22 23:21:00,56.1,55.6,29.68,WSW,248,8.7,8.7,98,0.00,,,0.00,VWS V14.01,2013-07-23 06:21:00,
2013-07-22 23:26:00,55.9,55.4,29.68,West,270,13.0,13.0,98,0.00,,,0.00,VWS V14.01,2013-07-23 06:26:00,
2013-07-22 23:31:00,55.9,55.4,29.68,SSW,202,7.4,7.4,98,0.00,,,0.00,VWS V14.01,2013-07-23 06:31:00,
2013-07-22 23:36:00,55.9,55.4,29.68,SW,225,6.3,6.3,98,0.00,,,0.00,VWS V14.01,2013-07-23 06:36:00,
2013-07-22 23:41:00,55.9,55.4,29.68,West,270,9.8,9.8,98,0.00,,,0.00,VWS V14.01,2013-07-23 06:41:00,
2013-07-22 23:46:00,55.9,55.4,29.68,WSW,248,5.4,5.4,98,0.00,,,0.00,VWS V14.01,2013-07-23 06:46:00,
2013-07-22 23:51:00,55.9,55.4,29.68,WSW,248,10.3,10.3,98,0.00,,,0.00,VWS V14.01,2013-07-23 06:51:00,
2013-07-22 23:56:00,55.9,55.4,29.68,SW,225,8.7,8.7,98,0.00,,,0.00,VWS V14.01,2013-07-23 06:56:00,